Find Starlink 32955

NORAD ID: 63117 Int'l Des: 2025-039 Owner: SPXS Country: US Constellation: starlink operational
LEOCIRCULAR

Live-Position

3D-Globus wird geladen...

Über Starlink 32955

Beschreibung wird geladen...

Nächste Überflüge

Passes for default location (London). Set your location on the main map for personalized predictions.

Höhenverlauf

Loading altitude history...

Zweizeiliger Elementsatz

1 63117U 25039P 26125.50001156 .00146619 00000-0 23831-2 0 9997
2 63117 42.9952 42.6242 0021104 212.1465 106.8120 15.51213288 5841
Epoch: 5. Mai 2026 • Age: 11 hours

Aktueller Status

Höhe 422.2 km
Geschwindigkeit 7.66 km/s
Subsatellitenpunkt -35.04°S, 146.56°E
Startdatum 27. Feb. 2025
Alter 1.1 years
Typ internet

Technische Details

Klassifizierung Payload
Masse 730.00 kg
Trockenmasse 700.00 kg
Gesamtmasse 730.00 kg
Länge 0.30 m
Durchmesser 4.10 m
Spannweite 29.00 m
Form Box + pan
Hersteller SPXS
Bus-Typ Starlink V2M
Phasenstatus In Orbit
Besitzer/Staat SPXS/US

Most Searched